CIEL-2

Last updated on Thu Apr 18 2024 00:02:38 GMT+0000 (Coordinated Universal Time)

1 33453U 08063A 24108.49752505 .00000064 00000+0 00000+0 0 9995 2 33453 0.7168 91.7005 0010617 315.3081 208.1493 0.99022673 56196
UTC large
Height (km)
Speed (km/s)
/
Latitude / Longitude
Inclination (degrees)
Orbital Period (minutes)
Azimuth
Elevation
Range (km)
Doppler Factor

Next 0 passes for location: London (51.5072 / 0.1276)

Sorry there are no passes over London.
CIEL-2